EW0876 Weather Reports


time (UTC)temp
C
wind
direction
speed
KPH
gust
KPH
rain 1hr
cm
rain 24hr
cm
rain mn
cm
humidity
%
barometer
mb
20260504081527 12 329 0.0 0.0 0.00 0.00 0.00 67 959.4
20260504050010 18 329 0.0 0.0 0.00 0.00 0.00 48 958.2
20260504044509 19 329 0.0 0.0 0.00 0.00 0.00 45 958.2
20260504043008 20 329 0.0 0.0 0.00 0.00 0.00 46 958.1
20260504041508 20 329 0.0 0.0 0.00 0.00 0.00 45 958.0
20260504040017 20 329 0.0 0.0 0.00 0.00 0.00 41 957.9
20260504034507 21 329 0.0 0.0 0.00 0.00 0.00 40 957.9
20260504033006 22 329 0.0 0.0 0.00 0.00 0.00 40 957.7
20260504031505 22 329 0.0 0.0 0.00 0.00 0.00 38 957.7
20260504030008 22 329 0.0 0.0 0.00 0.00 0.00 37 957.7
20260504024504 23 329 0.0 0.0 0.00 0.00 0.00 36 957.8
20260504023003 23 329 0.0 0.0 0.00 0.00 0.00 37 957.8
20260504021503 23 312 0.0 3.2 0.00 0.00 0.00 37 957.9
20260504020004 24 307 0.0 1.6 0.00 0.00 0.00 38 957.8
20260504014507 25 286 0.0 0.0 0.00 0.00 0.00 37 957.9
20260504013002 26 286 0.0 0.0 0.00 0.00 0.00 35 957.8
20260504011600 26 286 0.0 0.0 0.00 0.00 0.00 32 958.0
20260504010057 26 286 0.0 0.0 0.00 0.00 0.00 32 958.1
20260504004555 27 289 0.0 0.0 0.00 0.00 0.00 33 958.3
20260504003101 27 290 0.0 0.0 0.00 0.00 0.00 32 958.6
20260504001605 27 290 0.0 3.2 0.00 0.00 0.00 32 958.7
20260504000106 27 165 0.0 0.0 0.00 0.00 0.00 31 958.8
20260503234549 27 165 0.0 9.7 0.00 0.00 0.00 31 958.9
20260503233047 27 299 0.0 12.9 0.00 0.00 0.00 31 959.0
20260503231548 27 217 1.6 9.7 0.00 0.00 0.00 30 959.1
20260503230045 28 258 0.0 6.4 0.00 0.00 0.00 29 959.4
20260503224546 28 208 0.0 0.0 0.00 0.00 0.00 30 959.5
20260503223041 28 285 0.0 0.0 0.00 0.00 0.00 32 959.8
20260503221537 28 4 0.0 4.8 0.00 0.00 0.00 31 959.9
20260503220036 27 36 0.0 3.2 0.00 0.00 0.00 31 960.0
20260503214533 27 241 0.0 19.3 0.00 0.00 0.00 31 960.5
20260503213030 27 358 0.0 12.9 0.00 0.00 0.00 30 960.5
20260503211527 27 354 0.0 11.3 0.00 0.00 0.00 30 960.9
20260503210026 26 344 0.0 11.3 0.00 0.00 0.00 31 961.1
20260503204529 27 182 0.0 1.6 0.00 0.00 0.00 31 961.2
20260503203023 26 130 0.0 0.0 0.00 0.00 0.00 32 961.4
20260503201519 26 130 0.0 0.0 0.00 0.00 0.00 33 961.5
20260503200018 26 162 0.0 8.0 0.00 0.00 0.00 33 961.7
20260503194511 25 164 0.0 3.2 0.00 0.00 0.00 34 961.9
20260503193019 25 166 0.0 4.8 0.00 0.00 0.00 35 962.2
20260503191503 23 172 1.6 9.7 0.00 0.00 0.00 39 962.5
20260503190105 22 243 1.6 6.4 0.00 0.00 0.00 42 962.8
20260503184555 21 164 0.0 0.0 0.00 0.00 0.00 43 963.2
20260503183108 21 165 0.0 3.2 0.00 0.00 0.00 45 963.5
20260503181614 20 157 1.6 9.7 0.00 0.00 0.00 44 963.6
20260503180042 19 185 0.0 3.2 0.00 0.00 0.00 48 963.9
20260503174541 18 193 0.0 0.0 0.00 0.00 0.00 50 964.1
20260503173035 17 194 0.0 1.6 0.00 0.00 0.00 52 964.4
20260503171530 17 194 0.0 3.2 0.00 0.00 0.00 52 964.5